TimeEST,TemperatureF,Dew PointF,Humidity,Sea Level PressureIn,VisibilityMPH,Wind Direction,Wind SpeedMPH,Gust SpeedMPH,PrecipitationIn,Events,Conditions,WindDirDegrees,DateUTC
12:15 AM,38.3,9.3,30,29.97,10.0,West,9.2,-,N/A,,Clear,280,2013-02-20 05:15:00
12:35 AM,37.9,10.4,32,29.97,10.0,West,8.1,16.1,N/A,,Clear,280,2013-02-20 05:35:00
12:55 AM,37.0,11.1,34,29.99,10.0,WNW,4.6,-,N/A,,Clear,290,2013-02-20 05:55:00
1:15 AM,36.3,12.2,37,29.99,10.0,West,5.8,-,N/A,,Clear,280,2013-02-20 06:15:00
1:35 AM,35.2,12.6,39,30.00,10.0,West,3.5,-,N/A,,Clear,280,2013-02-20 06:35:00
2:15 AM,33.1,12.0,42,29.99,10.0,Calm,Calm,-,N/A,,Clear,0,2013-02-20 07:15:00
2:55 AM,29.5,5.5,36,29.98,10.0,Calm,Calm,-,N/A,,Clear,0,2013-02-20 07:55:00
3:15 AM,27.3,2.8,35,29.98,10.0,Calm,Calm,-,N/A,,Clear,0,2013-02-20 08:15:00
3:55 AM,28.4,7.0,40,29.99,10.0,Calm,Calm,-,N/A,,Clear,0,2013-02-20 08:55:00
4:15 AM,27.5,6.4,41,29.99,10.0,Calm,Calm,-,N/A,,Clear,0,2013-02-20 09:15:00
4:35 AM,28.9,10.2,46,29.99,10.0,Calm,Calm,-,N/A,,Clear,0,2013-02-20 09:35:00
4:55 AM,29.8,10.9,45,29.99,10.0,Calm,Calm,-,N/A,,Clear,0,2013-02-20 09:55:00
5:35 AM,25.7,6.1,43,30.00,10.0,Calm,Calm,-,N/A,,Clear,0,2013-02-20 10:35:00
6:15 AM,27.3,9.7,48,30.00,10.0,Calm,Calm,-,N/A,,Clear,0,2013-02-20 11:15:00
6:35 AM,26.6,9.0,47,30.00,10.0,Calm,Calm,-,N/A,,Clear,0,2013-02-20 11:35:00
7:15 AM,30.0,9.3,42,30.01,10.0,Calm,Calm,-,N/A,,Clear,0,2013-02-20 12:15:00
7:55 AM,33.8,9.1,36,30.02,10.0,WNW,5.8,-,N/A,,Clear,290,2013-02-20 12:55:00
8:15 AM,36.0,10.0,34,30.02,10.0,WSW,3.5,-,N/A,,Clear,250,2013-02-20 13:15:00
8:35 AM,38.1,15.8,40,30.02,10.0,WSW,4.6,-,N/A,,Clear,250,2013-02-20 13:35:00
8:55 AM,39.9,8.6,28,30.02,10.0,West,5.8,-,N/A,,Clear,270,2013-02-20 13:55:00
9:15 AM,41.4,9.1,27,30.02,10.0,WNW,6.9,-,N/A,,Clear,300,2013-02-20 14:15:00
9:35 AM,42.1,3.7,20,30.03,10.0,WNW,13.8,18.4,N/A,,Clear,300,2013-02-20 14:35:00
9:55 AM,43.0,0.3,17,30.03,10.0,NW,11.5,17.3,N/A,,Clear,310,2013-02-20 14:55:00
10:35 AM,45.5,-5.4,12,30.04,10.0,WNW,10.4,17.3,N/A,,Clear,290,2013-02-20 15:35:00
10:55 AM,46.8,-6.5,11,30.04,10.0,NW,11.5,-,N/A,,Clear,320,2013-02-20 15:55:00
11:15 AM,47.7,-6.5,10,30.04,10.0,West,6.9,-,N/A,,Clear,280,2013-02-20 16:15:00
11:35 AM,49.1,-10.3,8,30.04,10.0,WNW,5.8,-,N/A,,Clear,300,2013-02-20 16:35:00
11:55 AM,49.6,-10.3,8,30.04,10.0,NW,10.4,16.1,N/A,,Clear,310,2013-02-20 16:55:00
12:35 PM,51.1,-8.3,8,30.02,10.0,NW,5.8,-,N/A,,Clear,320,2013-02-20 17:35:00
12:55 PM,52.2,-8.1,8,30.01,10.0,NW,6.9,-,N/A,,Clear,310,2013-02-20 17:55:00
1:15 PM,53.6,-6.9,8,30.00,10.0,NNE,9.2,-,N/A,,Clear,20,2013-02-20 18:15:00
1:35 PM,53.6,-14.3,6,30.01,10.0,NW,10.4,16.1,N/A,,Clear,310,2013-02-20 18:35:00
2:15 PM,52.2,-11.6,7,30.00,10.0,NW,10.4,18.4,N/A,,Clear,310,2013-02-20 19:15:00
2:35 PM,50.4,-13.0,7,30.00,10.0,NW,11.5,17.3,N/A,,Clear,310,2013-02-20 19:35:00
3:55 PM,49.6,-11.6,8,30.00,10.0,NW,8.1,18.4,N/A,,Clear,320,2013-02-20 20:55:00
4:35 PM,48.2,-9.9,9,30.01,10.0,NW,12.7,17.3,N/A,,Clear,310,2013-02-20 21:35:00
4:55 PM,47.3,-7.8,10,30.02,10.0,WNW,12.7,19.6,N/A,,Clear,300,2013-02-20 21:55:00
5:15 PM,46.0,-6.3,11,30.03,10.0,NW,10.4,16.1,N/A,,Clear,310,2013-02-20 22:15:00
5:35 PM,45.5,-4.0,13,30.03,10.0,NW,9.2,-,N/A,,Clear,310,2013-02-20 22:35:00
5:55 PM,44.4,-4.9,13,30.04,10.0,WNW,8.1,-,N/A,,Clear,290,2013-02-20 22:55:00
6:15 PM,43.5,-2.4,15,30.05,10.0,WNW,6.9,-,N/A,,Clear,290,2013-02-20 23:15:00
6:55 PM,41.9,-0.2,17,30.07,10.0,WNW,6.9,-,N/A,,Clear,290,2013-02-20 23:55:00
7:15 PM,40.8,0.7,19,30.08,10.0,WNW,3.5,-,N/A,,Clear,300,2013-02-21 00:15:00
7:55 PM,38.1,0.9,21,30.09,10.0,NW,3.5,-,N/A,,Clear,310,2013-02-21 00:55:00
8:35 PM,38.7,3.7,23,30.11,10.0,WNW,4.6,-,N/A,,Clear,300,2013-02-21 01:35:00
9:15 PM,37.8,4.8,25,30.11,10.0,NW,6.9,-,N/A,,Clear,310,2013-02-21 02:15:00
9:35 PM,37.4,6.3,27,30.12,10.0,WNW,8.1,17.3,N/A,,Clear,300,2013-02-21 02:35:00
9:55 PM,37.4,6.4,28,30.12,10.0,NW,6.9,-,N/A,,Clear,320,2013-02-21 02:55:00
10:15 PM,37.4,6.8,28,30.12,10.0,WNW,6.9,-,N/A,,Clear,300,2013-02-21 03:15:00
10:35 PM,36.7,7.2,29,30.11,10.0,NW,8.1,-,N/A,,Clear,320,2013-02-21 03:35:00
10:55 PM,36.5,6.8,29,30.11,10.0,NNW,4.6,-,N/A,,Clear,330,2013-02-21 03:55:00
11:15 PM,35.8,6.4,29,30.10,10.0,NW,6.9,-,N/A,,Clear,310,2013-02-21 04:15:00
11:35 PM,34.9,6.3,30,30.10,10.0,NW,4.6,-,N/A,,Clear,310,2013-02-21 04:35:00
11:55 PM,34.0,6.8,32,30.10,10.0,NW,3.5,-,N/A,,Clear,310,2013-02-21 04:55:00